User: anonymous   Login
Location: B?jaj?g
(11.7167°N, 92.6667°E)
Time: 02:02:25
(UTC+00:00)
Language:

deb Chang Zheng 4 - Orbit

View from above orbital plane
View from above orbital plane
View from above satellite
View from above satellite

Ground track
Ground track

The orbit data is extracted from the following two-line orbital elements,

1 20847U 90081K   20334.54275984 +.00005083 +00000-0 +60026-3 0  9998
2 20847 098.5646 316.9863 0016188 346.2470 013.8299 14.85101179592529
Epoch (UTC): 29 November 2020 13:01:34
Eccentricity: 0.0016188
inclination: 98.5646°
perigee height: 602 km
apogee height: 624 km
right ascension of ascending node: 316.9863°
argument of perigee: 346.2470°
revolutions per day: 14.85101179
mean anomaly at epoch: 13.8299°
orbit number at epoch: 59252

The dashed part of the orbit path shows where the satellite is in the earth's shadow,  

DLR